Tracking 19969 objects as of 12-Nov-2019
Live streaming from Space Station
objects crossing your sky now
Track the group of recently launched Starlink satellites

FENGYUN 1C DEB

Track FENGYUN 1C DEB now!
10-day predictions


NORAD ID: 32095
Int'l Code: 1999-025CQM
Perigee: 796.7 km
Apogee: 912.7 km
Inclination: 98.9 °
Period: 101.9 minutes
Semi major axis: 7225 km
RCS: 0.0116 m2 (small)
Launch date: May 10, 1999
Source: People's Republic of China (PRC)
Launch site: Taiyaun Space Center, China (TSC)

Note: This is SATELLITE DEBRIS
aabbcc
Your satellite tracking list
Your tracking list is empty




NASA's NSSDC Master Catalog

Two Line Element Set (TLE):
1 32095U 99025CQM 19315.32212107  .00000111  00000-0  80537-4 0  9991
2 32095  98.8619 346.2412 0080271 312.8842  46.5609 14.13463929635141
Source of the keplerian elements: AFSPC